This is the latest recevied weather packets stored in our database for station/object OE3MHU-13. If no packets are shown the sender has not sent any weather packets the latest 1 day(s).
| Time | Temp. | Humidity | Pressure | Rain* | Wind** | Luminosity | Snow |
|---|---|---|---|---|---|---|---|
| 1778075652 | 25° C | 43% | 1006 hPa | 0 mm | - | - | - |
| 1778074751 | 25.56° C | 43% | 1006.1 hPa | 0 mm | - | - | - |
| 1778074452 | 25.56° C | 45% | 1006.2 hPa | 0 mm | - | - | - |
| 1778074151 | 25° C | 44% | 1006.4 hPa | 0 mm | - | - | - |
| 1778073246 | 24.44° C | 44% | 1006.6 hPa | 0 mm | - | - | - |
| 1778071139 | 23.33° C | 48% | 1006.9 hPa | 0 mm | - | - | - |
| 1778069638 | 23.33° C | 48% | 1007.6 hPa | 0 mm | - | - | - |
| 1778067523 | 23.89° C | 49% | 1008.1 hPa | 0 mm | - | - | - |
| 1778066923 | 23.89° C | 48% | 1008.2 hPa | 0 mm | - | - | - |
| 1778066623 | 23.89° C | 49% | 1008.2 hPa | 0 mm | - | - | - |
| 1778066321 | 23.89° C | 51% | 1008.2 hPa | 0 mm | - | - | - |
| 1778066022 | 23.33° C | 53% | 1008.4 hPa | 0 mm | - | - | - |
| 1778063917 | 23.33° C | 52% | 1008.8 hPa | 0 mm | - | - | - |
| 1778062711 | 23.33° C | 52% | 1008.8 hPa | 0 mm | - | - | - |
| 1778062111 | 23.33° C | 52% | 1009.1 hPa | 0 mm | - | - | - |
| 1778060307 | 22.78° C | 53% | 1009.3 hPa | 0 mm | - | - | - |
| 1778060007 | 22.78° C | 51% | 1009.4 hPa | 0 mm | - | - | - |
| 1778059405 | 22.22° C | 53% | 1009.5 hPa | 0 mm | - | - | - |
| 1778059106 | 22.78° C | 52% | 1009.7 hPa | 0 mm | - | - | - |
| 1778058504 | 22.78° C | 52% | 1009.6 hPa | 0 mm | - | - | - |
| 1778057903 | 23.33° C | 52% | 1009.5 hPa | 0 mm | - | - | - |
| 1778056699 | 22.78° C | 51% | 1009.6 hPa | 0 mm | - | - | - |
| 1778056399 | 22.78° C | 53% | 1009.6 hPa | 0 mm | - | - | - |
| 1778055799 | 22.78° C | 50% | 1009.7 hPa | 0 mm | - | - | - |
| 1778054895 | 23.33° C | 51% | 1009.9 hPa | 0 mm | - | - | - |
* Rain latest hour (hover to see other rain measurements)
** Current wind speed in m/s (hover to see current wind gust speed)